Location: Peach Mountain Observatory
(42.3967°N, 83.9367°W)
Time: 09:47:27
(UTC-05:00)

Tiros 1 - Visible Passes

Search period start: 23 January 2020 00:00
Search period end: 02 February 2020 00:00
Orbit: 630 x 664 km, 48.4° (Epoch: 23 January)

Date Brightness Start Highest point End Pass type
(mag) Time Alt. Az. Time Alt. Az. Time Alt. Az.
23 Jan 7.3 18:27:10 10° WNW 18:31:55 63° NNE 18:36:27 11° ESE visible
23 Jan 8.3 20:09:34 10° WNW 20:14:02 39° SW 20:14:10 39° SW visible
24 Jan 7.3 18:53:15 10° WNW 18:58:03 80° SSW 19:02:08 14° SE visible
24 Jan 9.4 20:36:24 10° W 20:39:44 19° SW 20:39:52 19° SW visible
25 Jan 8.3 19:19:28 10° WNW 19:23:58 42° SW 19:28:04 12° SSE visible
26 Jan 7.3 18:03:12 10° WNW 18:07:59 85° SSW 18:12:48 10° ESE visible
26 Jan 9.5 19:46:12 10° W 19:49:43 20° SW 19:53:13 10° S visible
27 Jan 8.3 18:29:24 10° WNW 18:33:56 45° SW 18:38:30 10° SE visible
28 Jan 9.6 18:56:03 10° W 18:59:42 22° SW 19:03:21 10° S visible
31 Jan 10.7 18:34:33 10° WSW 18:35:15 10° SW 18:35:57 10° SW visible
